CZ-2C R/B, 43610

Orbit data source: Space-Track

CZ-2C R/B, 43610 is space debris in SSO originally from a launch on Fri, 07 Sep 2018 UTC launched from the Taiyaun Space Center, China (TSC). Debris objects in space refer to the collection of defunct objects orbiting the Earth. Examples of debris include non-operational satellites, rocket bodies, and fragments generated from explosions, collisions, or faulty payload assembly.

Loading next visibility...
Identifier
43610, 2018-068B
Orbit
SSO
Last TLE update
7 hours ago
Origin
Manufacturer
CALT
Mission
Spacecraft
Bus & Motor
CZ-2 STAGE 2, Unknown motor
Mass
~3,800 kg wet, ~3,800 kg dry
Launch date (UTC)
2018-09-07 (7 years ago)
Launch vehicle
Unknown
Launch site
Taiyaun Space Center, China (TSC)
Object type
Payload
Rocket body
Debris
Shape & HBR
Cyl, 7.49 m
Radar Cross Section
23.715 m², Large (>1 m²)

Expand to show TLE details & history

TLE from 7 hours ago
0 CZ-2C R/B
1 43610U 18068B   25191.94428016  .00000149  00000-0  44056-4 0  9996
2 43610  98.7314  16.4319 0086179 312.8562  46.5417 14.56252732363220
Epoch: 2025-07-10T22:39Z
TLE epoch observation values (Epoch: 2025-07-10T22:39:45.805Z)
Latitude
-0.00005°
Longitude
107.38776°
Altitude
666.546 km
Speed
7.546 km/s
True Right ascension
01h 05m 43s
True Declination
0° 00' 00"
Sunlit
Object was in daylight at epoch
Visualization orbit readout
Latitude
28.91369°
Longitude
-67.4541°
Altitude
766.645 km
Speed
7.443 km/s
Apparent Right ascension
10h 28m 27s
Apparent Declination
-5° 27' 07"
Sunlit
Object is in daylight
Visualization observer readout
Local Sidereal Time
18:14:21
Azimuth
283.377° WNW
Elevation
-23.663°
Doppler factor
1
Orbital elements
Apogee altitude
763.43 km
Perigee altitude
641.391 km
Semi-major axis
7,080.548 km
Eccentricity
0.00862
Inclination
98.7314°
RAAN
16.4319°
Arg. of periapsis
312.8562°
True anomaly
Unknown
Mean anomaly
46.5417°
Eccentric anomaly
Unknown
Mean motion
3.64286 °/min
Orbital period
98.82 mins
BSTAR
0.000044056
Loading maneuver chart data...
Loading SW <> Apogee altitude chart data...
Loading historical data...
Loading historical data...
Loading historical data...
Loading historical data...
Loading historical data...
Loading historical data...
Loading historical data...
Other satellites on launch #68 in the year 2018 (2018-09-07 UTC)

CZ-2C R/B Visibility forecast

Observer location: undefined°, undefined°

Span
Click to sort rows by Start time (UTC) header in descending order
Start Az.
Max El. time (UTC)
Max El. Az.
Max El.
End time (UTC)
End Az.
9 mins2025-07-11 11:58:13.114Z150.743° SSE2025-07-11 12:02:13.114Z94.018° ESE40.072°2025-07-11 12:07:13.114Z354.388° N
4 mins2025-07-12 00:01:13.114Z67.608° E2025-07-12 00:03:13.114Z94.851° ESE15.888°2025-07-12 00:05:13.114Z121.211° SE
8 mins2025-07-12 01:37:13.114Z1.38° NNE2025-07-12 01:41:13.114Z280.049° WNW39.629°2025-07-12 01:45:13.114Z213.047° SW
|